Weather History for Brno, Czech Republic

Change the Weather History Date:

Monday, November 12, 2012

  Actual Average Record
Temperature  
Mean Temperature 47 °F -  
Max Temperature 50 °F 40 °F - ()
Min Temperature 44 °F 31 °F - ()
Degree Days  
Heating Degree Days 18    
Moisture  
Dew Point 43 °F    
Average Humidity 86    
Maximum Humidity 93    
Minimum Humidity 76    
Precipitation  
Precipitation 0.04 in 0.04 in - ()
Sea Level Pressure  
Sea Level Pressure 30.21 in    
Wind  
Wind Speed 3 mph ()    
Max Wind Speed 8 mph    
Max Gust Speed -    
Visibility 3.6 miles    
Events Rain    
T = Trace of Precipitation, MM = Missing Value Source: Averaged Metar Reports

Daily Weather History Graph

Daily Weather History Graph

Search for Another Location

Airport:

Trip Planner

Search our weather history database for the weather conditions in past years. The results will help you decide how hot, cold, wet, or windy it might be!

Date:

Astronomy

Nov. 12, 2012 Rise Set
Actual Time 6:58 AM CET 4:15 PM CET
Civil Twilight 6:24 AM CET 4:49 PM CET
Nautical Twilight 5:45 AM CET 5:28 PM CET
Astronomical Twilight 5:08 AM CET 6:05 PM CET
Moon 4:56 AM CET (11/12) 3:11 PM CET (11/12)
Length of Visible Light 10h 25m
Length of Day
9h 16m
Waning Crescent, 3% of the Moon is Illuminated
Nov 12
Waning Crescent
Nov 13
New
Nov 20
First Quarter
Nov 28
Full
Dec 6
Last Quarter

Hourly Weather History & Observations

Time (CET) Temp. Windchill Dew Point Humidity Pressure Visibility Wind Dir Wind Speed Gust Speed Precip Events Conditions
12:00 AM 46.4 °F 45.2 °F 41.0 °F 81% 30.04 in - SSE 3.5 mph - N/A   Clear
12:30 AM 46.4 °F 44.3 °F 41.0 °F 81% 30.06 in - South 4.6 mph - N/A   Clear
1:00 AM 46 °F - 41 °F 76% 30.11 in 16 mi SSW 4.5 mph - -   Overcast
1:00 AM 46.4 °F - 41.0 °F 81% 30.06 in - Variable 2.3 mph - N/A   Clear
1:30 AM 46.4 °F - 41.0 °F 81% 30.09 in - Calm Calm - N/A   Clear
2:00 AM 44.6 °F - 41.0 °F 87% 30.09 in - Variable 1.2 mph - N/A   Clear
2:30 AM 46.4 °F - 41.0 °F 81% 30.09 in - Calm Calm - N/A   Clear
3:00 AM 44.6 °F 43.1 °F 41.0 °F 87% 30.09 in - South 3.5 mph - N/A   Clear
3:30 AM 46.4 °F 45.2 °F 41.0 °F 81% 30.09 in - WNW 3.5 mph - N/A   Clear
4:00 AM 46.4 °F 42.9 °F 39.2 °F 76% 30.12 in - NW 6.9 mph - N/A   Clear
4:30 AM 46.4 °F - 39.2 °F 76% 30.12 in - Calm Calm - N/A   Clear
5:00 AM 46.4 °F 45.2 °F 39.2 °F 76% 30.12 in 6.2 mi WNW 3.5 mph - N/A   Partly Cloudy
5:13 AM 46.4 °F 45.2 °F 39.2 °F 76% 30.12 in 6.2 mi WNW 3.5 mph - N/A Rain Light Rain
5:30 AM 46.4 °F 44.3 °F 41.0 °F 81% 30.12 in 6.2 mi WNW 4.6 mph - N/A Rain Light Rain
6:00 AM 46.4 °F 43.5 °F 41.0 °F 81% 30.15 in 6.2 mi WNW 5.8 mph - N/A Rain Light Rain
6:30 AM 44.6 °F - 41.0 °F 87% 30.15 in 5.0 mi Variable 2.3 mph - N/A Rain Light Rain
7:00 AM 46 °F - 42 °F 81% 30.21 in 3 mi West 2.2 mph - - Rain Light Rain
7:00 AM 44.6 °F 43.1 °F 42.8 °F 93% 30.18 in 3.1 mi WNW 3.5 mph - N/A Rain Light Rain
7:30 AM 44.6 °F 43.1 °F 42.8 °F 93% 30.18 in 3.1 mi West 3.5 mph - N/A Rain Light Rain
8:00 AM 44.6 °F - 42.8 °F 93% 30.21 in - Variable 1.2 mph - N/A Rain Light Rain
8:30 AM 46.4 °F - 42.8 °F 87% 30.18 in 2.8 mi NW 2.3 mph - N/A Rain Light Rain
9:00 AM 46.4 °F 45.2 °F 42.8 °F 87% 30.21 in 2.2 mi WNW 3.5 mph - N/A Rain Light Rain
9:30 AM 46.4 °F 44.3 °F 44.6 °F 93% 30.21 in 2.2 mi NW 4.6 mph - N/A   Mist
10:00 AM 48.2 °F - 44.6 °F 87% 30.21 in 2.5 mi WNW 3.5 mph - N/A   Mist
10:30 AM 48.2 °F - 44.6 °F 87% 30.21 in - WNW 4.6 mph - N/A   Mist
11:00 AM 48.2 °F - 44.6 °F 87% 30.21 in 2.5 mi West 2.3 mph - N/A   Mist
11:30 AM 48.2 °F - 44.6 °F 87% 30.24 in - West 6.9 mph - N/A   Mist
12:00 PM 50.0 °F - 44.6 °F 82% 30.24 in 2.8 mi WNW 5.8 mph - N/A   Mist
12:03 PM 50.0 °F - 44.6 °F 82% 30.24 in 3.1 mi WNW 4.6 mph - N/A Rain Light Rain
12:30 PM 50.0 °F - 44.6 °F 82% 30.21 in 3.1 mi WNW 3.5 mph - N/A Rain Light Rain
1:00 PM 50 °F - 45 °F 77% 30.26 in 3 mi WSW 4.5 mph - - Rain Light Rain
1:00 PM 50.0 °F - 44.6 °F 82% 30.24 in 3.1 mi West 3.5 mph - N/A Rain Light Rain
1:30 PM 50.0 °F - 46.4 °F 87% 30.24 in 2.8 mi SW 2.3 mph - N/A Rain Light Rain
2:00 PM 50.0 °F - 44.6 °F 82% 30.24 in 2.8 mi West 3.5 mph - N/A Rain Light Rain
2:30 PM 50.0 °F - 46.4 °F 87% 30.24 in 2.5 mi Variable 1.2 mph - N/A Rain Light Rain
3:00 PM 50.0 °F - 46.4 °F 87% 30.24 in - ESE 4.6 mph - N/A   Mist
3:30 PM 50.0 °F - 46.4 °F 87% 30.24 in 2.2 mi NE 3.5 mph - N/A   Scattered Clouds
4:00 PM 50.0 °F - 46.4 °F 87% 30.24 in 2.2 mi ENE 4.6 mph - N/A   Mostly Cloudy
4:30 PM 48.2 °F - 46.4 °F 93% 30.27 in - Variable 2.3 mph - N/A   Mist
5:00 PM 48.2 °F - 46.4 °F 93% 30.27 in 2.8 mi Calm Calm - N/A   Mist
5:30 PM 48.2 °F - 46.4 °F 93% 30.27 in 2.8 mi North 3.5 mph - N/A   Mist
6:00 PM 48.2 °F - 44.6 °F 87% 30.27 in 2.2 mi North 2.3 mph - N/A   Mist
6:30 PM 46.4 °F - 44.6 °F 93% 30.27 in 2.2 mi East 2.3 mph - N/A   Mist
7:00 PM 47 °F - 44 °F 87% 30.32 in 2 mi East 2.2 mph - - Rain Light Rain
7:00 PM 46.4 °F 45.2 °F 44.6 °F 93% 30.30 in - East 3.5 mph - N/A Rain Light Rain
7:30 PM 46.4 °F - 44.6 °F 93% 30.30 in - Variable 2.3 mph - N/A Rain Light Rain
8:00 PM 48.2 °F - 44.6 °F 87% 30.33 in - North 4.6 mph - N/A Rain Light Rain
8:30 PM 48.2 °F - 44.6 °F 87% 30.30 in 2.8 mi North 4.6 mph - N/A   Overcast
9:00 PM 48.2 °F - 44.6 °F 87% 30.33 in 3.1 mi Variable 2.3 mph - N/A   Mostly Cloudy
9:30 PM 46.4 °F 45.2 °F 44.6 °F 93% 30.33 in - WNW 3.5 mph - N/A   Mist
10:00 PM 46.4 °F 43.5 °F 44.6 °F 93% 30.33 in - NW 5.8 mph - N/A   Mostly Cloudy
10:30 PM 46.4 °F 42.4 °F 44.6 °F 93% 30.33 in - North 8.1 mph - N/A   Mostly Cloudy
11:00 PM 48.2 °F - 44.6 °F 87% 30.33 in 3.1 mi NW 4.6 mph - N/A   Mostly Cloudy
11:30 PM 48.2 °F - 44.6 °F 87% 30.36 in 3.1 mi NW 3.5 mph - N/A   Overcast